KLM6E SAEZ-EHAM

Flight info

Callsign KLM6E
Flight time N/A
Altitude 31000
Route DORVO1A DORVO UN857 OGRUN DCT NIGBI UZ121 PENSO/N0496F330 UZ5 SEKPO DCT KADAG UZ2 SLI DCT MAVKO/N0493F350 DCT GOGSO DCT GARPO/M083F350 DCT TEGTO/M083F370 DCT SORAD DCT 35N022W 40N019W/M083F390 DCT GONAN DCT TAMEL DCT EVBAK DCT GAPLI/N0477F390 DCT GAJIT DCT ENHAQ DCT REDFA
Aircraft B772/H-SDE2E3FGHIJ5LORVWXY/LB1D1

Departure

Time N/A
Airport Ezeiza International Airport - Ministro Pistarini (SAEZ)

Arrival

Time 2026-05-06 17:13
Airport Amsterdam Airport Schiphol (EHAM)
Time Latitude Longitude Altitude Speed Heading
2026-05-06 13:58 36.84564 -20.94397 39235 ft 447 kts 18°
2026-05-06 13:58 36.91097 -20.90558 39236 ft 446 kts 18°
2026-05-06 13:59 36.95767 -20.87808 39233 ft 446 kts 18°
2026-05-06 13:59 37.01383 -20.84497 39233 ft 446 kts 18°
2026-05-06 14:00 37.06999 -20.81180 39240 ft 446 kts 18°
2026-05-06 14:00 37.12610 -20.77861 39232 ft 446 kts 18°
2026-05-06 14:01 37.18230 -20.74531 39235 ft 447 kts 18°
2026-05-06 14:01 37.23856 -20.71192 39237 ft 447 kts 18°
2026-05-06 14:02 37.29482 -20.67847 39238 ft 448 kts 18°
2026-05-06 14:02 37.35122 -20.64488 39230 ft 449 kts 19°
2026-05-06 14:03 37.40767 -20.61120 39228 ft 449 kts 19°
2026-05-06 14:03 37.46415 -20.57745 39229 ft 449 kts 19°
2026-05-06 14:04 37.52063 -20.54363 39230 ft 449 kts 19°
2026-05-06 14:04 37.57713 -20.50976 39225 ft 450 kts 19°
2026-05-06 14:05 37.63357 -20.47586 39226 ft 450 kts 19°
2026-05-06 14:05 37.69010 -20.44185 39227 ft 450 kts 19°
2026-05-06 14:06 37.74626 -20.40801 39223 ft 450 kts 19°
2026-05-06 14:06 37.80281 -20.37387 39226 ft 450 kts 19°
2026-05-06 14:07 37.85937 -20.33967 39221 ft 451 kts 19°
2026-05-06 14:07 37.91588 -20.30544 39226 ft 451 kts 19°
2026-05-06 14:08 37.97248 -20.27110 39222 ft 451 kts 19°
2026-05-06 14:08 38.02918 -20.23664 39223 ft 451 kts 19°
2026-05-06 14:09 38.08582 -20.20215 39224 ft 452 kts 19°
2026-05-06 14:09 38.14248 -20.16760 39219 ft 452 kts 19°
2026-05-06 14:10 38.19920 -20.13295 39217 ft 452 kts 19°
2026-05-06 14:10 38.25551 -20.09848 39230 ft 452 kts 19°
2026-05-06 14:11 38.31218 -20.06374 39217 ft 452 kts 19°
2026-05-06 14:11 38.36886 -20.02892 39216 ft 452 kts 19°
2026-05-06 14:12 38.42553 -19.99406 39217 ft 452 kts 19°
2026-05-06 14:12 38.48215 -19.95916 39215 ft 452 kts 19°
2026-05-06 14:13 38.53874 -19.92422 39212 ft 452 kts 19°
2026-05-06 14:13 38.59530 -19.88924 39211 ft 451 kts 19°
2026-05-06 14:14 38.65183 -19.85422 39212 ft 451 kts 19°
2026-05-06 14:14 38.70829 -19.81917 39209 ft 451 kts 19°
2026-05-06 14:15 38.76474 -19.78407 39203 ft 451 kts 20°
2026-05-06 14:15 38.82079 -19.74916 39210 ft 451 kts 19°
2026-05-06 14:16 38.87722 -19.71396 39210 ft 451 kts 19°
2026-05-06 14:16 38.93404 -19.67845 39210 ft 451 kts 20°
2026-05-06 14:17 38.99045 -19.64312 39206 ft 451 kts 20°
2026-05-06 14:17 39.04653 -19.60794 39211 ft 451 kts 20°
2026-05-06 14:18 39.10300 -19.57246 39207 ft 452 kts 20°
2026-05-06 14:18 39.15950 -19.53688 39208 ft 452 kts 20°
2026-05-06 14:19 39.21600 -19.50125 39197 ft 452 kts 20°
2026-05-06 14:19 39.27253 -19.46553 39198 ft 452 kts 20°
2026-05-06 14:20 39.32901 -19.42978 39205 ft 452 kts 20°
2026-05-06 14:20 39.38552 -19.39395 39205 ft 453 kts 20°
2026-05-06 14:21 39.44207 -19.35803 39209 ft 453 kts 20°
2026-05-06 14:21 39.49862 -19.32204 39201 ft 453 kts 20°
2026-05-06 14:22 39.55526 -19.28592 39199 ft 453 kts 20°
2026-05-06 14:22 39.61181 -19.24980 39203 ft 453 kts 20°
2026-05-06 14:23 39.66844 -19.21356 39199 ft 454 kts 20°
2026-05-06 14:23 39.72506 -19.17726 39199 ft 454 kts 20°
2026-05-06 14:24 39.78172 -19.14086 39203 ft 454 kts 20°
2026-05-06 14:24 39.83841 -19.10438 39198 ft 454 kts 20°
2026-05-06 14:25 39.89505 -19.06786 39197 ft 454 kts 20°
2026-05-06 14:25 39.95170 -19.03127 39197 ft 455 kts 20°
2026-05-06 14:26 40.00796 -18.99318 39204 ft 459 kts 25°
2026-05-06 14:26 40.06108 -18.94607 39198 ft 462 kts 28°
2026-05-06 14:27 40.11366 -18.89758 39197 ft 463 kts 28°
2026-05-06 14:27 40.16632 -18.84916 39192 ft 463 kts 28°
2026-05-06 14:28 40.21873 -18.80124 39192 ft 463 kts 28°
2026-05-06 14:28 40.27198 -18.75262 39192 ft 463 kts 28°
2026-05-06 14:29 40.32486 -18.70426 39192 ft 464 kts 28°
2026-05-06 14:29 40.37738 -18.65612 39193 ft 464 kts 28°
2026-05-06 14:30 40.43033 -18.60748 39190 ft 464 kts 28°
2026-05-06 14:30 40.48323 -18.55879 39192 ft 465 kts 28°
2026-05-06 14:31 40.53624 -18.50991 39182 ft 465 kts 28°
2026-05-06 14:31 40.58918 -18.46099 39184 ft 465 kts 28°
2026-05-06 14:32 40.64215 -18.41195 39189 ft 466 kts 28°
2026-05-06 14:32 40.69511 -18.36282 39189 ft 466 kts 28°
2026-05-06 14:33 40.74813 -18.31353 39191 ft 467 kts 28°
2026-05-06 14:33 40.80121 -18.26410 39189 ft 467 kts 28°
2026-05-06 14:34 40.85433 -18.21452 39186 ft 468 kts 28°
2026-05-06 14:34 40.90725 -18.16504 39187 ft 468 kts 28°
2026-05-06 14:35 40.96047 -18.11517 39190 ft 469 kts 28°
2026-05-06 14:35 41.01369 -18.06521 39190 ft 469 kts 28°
2026-05-06 14:36 41.06697 -18.01508 39185 ft 470 kts 28°
2026-05-06 14:36 41.12030 -17.96481 39184 ft 471 kts 28°
2026-05-06 14:37 41.17363 -17.91442 39166 ft 471 kts 28°
2026-05-06 14:37 41.22736 -17.86357 39172 ft 471 kts 28°
2026-05-06 14:38 41.28042 -17.81323 39177 ft 472 kts 28°
2026-05-06 14:38 41.33384 -17.76246 39175 ft 472 kts 28°
2026-05-06 14:39 41.38731 -17.71155 39175 ft 472 kts 28°
2026-05-06 14:39 41.44070 -17.66060 39176 ft 473 kts 28°
2026-05-06 14:40 41.49424 -17.60940 39174 ft 473 kts 28°
2026-05-06 14:40 41.54778 -17.55809 39173 ft 474 kts 28°
2026-05-06 14:41 41.60129 -17.50670 39173 ft 474 kts 28°
2026-05-06 14:41 41.65488 -17.45512 39173 ft 474 kts 28°
2026-05-06 14:42 41.70847 -17.40344 39175 ft 475 kts 28°
2026-05-06 14:42 41.75301 -17.36040 39175 ft 475 kts 29°
2026-05-06 14:43 41.80665 -17.30847 39173 ft 476 kts 29°
2026-05-06 14:43 41.86023 -17.25649 39173 ft 476 kts 29°
2026-05-06 14:44 41.91384 -17.20437 39172 ft 476 kts 29°
2026-05-06 14:45 41.99424 -17.12600 39166 ft 476 kts 29°
2026-05-06 14:45 42.04785 -17.07360 39171 ft 476 kts 30°
2026-05-06 14:46 42.10144 -17.02112 39161 ft 476 kts 30°
2026-05-06 14:46 42.15496 -16.96859 39170 ft 476 kts 30°
2026-05-06 14:47 42.20855 -16.91588 39166 ft 477 kts 30°
2026-05-06 14:47 42.26216 -16.86303 39165 ft 477 kts 30°
2026-05-06 14:48 42.31573 -16.81011 39165 ft 478 kts 30°
2026-05-06 14:48 42.36938 -16.75700 39164 ft 478 kts 31°
2026-05-06 14:49 42.42303 -16.70377 39165 ft 478 kts 31°
2026-05-06 14:49 42.47670 -16.65040 39162 ft 479 kts 31°
2026-05-06 14:50 42.53041 -16.59689 39161 ft 479 kts 31°
2026-05-06 14:50 42.58404 -16.54332 39163 ft 479 kts 31°
2026-05-06 14:51 42.63776 -16.48955 39170 ft 479 kts 31°
2026-05-06 14:51 42.69135 -16.43580 39161 ft 479 kts 32°
2026-05-06 14:52 42.74459 -16.38228 39166 ft 479 kts 32°
2026-05-06 14:52 42.79841 -16.32806 39156 ft 479 kts 32°
2026-05-06 14:53 42.85159 -16.27436 39158 ft 478 kts 32°
2026-05-06 14:53 42.90500 -16.22031 39159 ft 478 kts 32°
2026-05-06 14:54 42.95839 -16.16617 39161 ft 478 kts 32°
2026-05-06 14:54 43.01170 -16.11199 39160 ft 478 kts 32°
2026-05-06 14:55 43.06502 -16.05767 39156 ft 477 kts 32°
2026-05-06 14:55 43.11819 -16.00339 39155 ft 477 kts 32°
2026-05-06 14:56 43.17140 -15.94894 39156 ft 477 kts 32°
2026-05-06 14:56 43.22452 -15.89448 39152 ft 477 kts 32°
2026-05-06 14:57 43.27754 -15.83998 39151 ft 477 kts 32°
2026-05-06 14:57 43.33064 -15.78529 39151 ft 476 kts 33°
2026-05-06 14:58 43.38359 -15.73062 39155 ft 476 kts 33°
2026-05-06 14:58 43.43651 -15.67587 39150 ft 476 kts 33°
2026-05-06 14:59 43.48945 -15.62097 39151 ft 476 kts 33°
2026-05-06 14:59 43.54223 -15.56612 39150 ft 476 kts 33°
2026-05-06 15:00 43.59507 -15.51108 39150 ft 475 kts 33°
2026-05-06 15:00 43.64784 -15.45598 39135 ft 475 kts 33°
2026-05-06 15:01 43.70049 -15.40089 39155 ft 475 kts 33°
2026-05-06 15:01 43.75309 -15.34573 39159 ft 474 kts 33°
2026-05-06 15:02 43.80565 -15.29047 39141 ft 474 kts 33°
2026-05-06 15:02 43.85823 -15.23509 39140 ft 474 kts 33°
2026-05-06 15:03 43.91037 -15.18004 39140 ft 474 kts 33°
2026-05-06 15:03 43.96282 -15.12452 39138 ft 474 kts 33°
2026-05-06 15:04 44.01523 -15.06893 39136 ft 474 kts 33°
2026-05-06 15:04 44.06772 -15.01313 39138 ft 474 kts 33°
2026-05-06 15:05 44.12009 -14.95733 39136 ft 475 kts 34°
2026-05-06 15:05 44.17248 -14.90137 39126 ft 475 kts 34°
2026-05-06 15:06 44.22494 -14.84522 39121 ft 475 kts 34°
2026-05-06 15:06 44.27738 -14.78895 39126 ft 476 kts 34°
2026-05-06 15:07 44.32986 -14.73251 39127 ft 476 kts 34°
2026-05-06 15:07 44.38239 -14.67589 39128 ft 477 kts 34°
2026-05-06 15:08 44.43487 -14.61919 39129 ft 477 kts 34°
2026-05-06 15:08 44.48747 -14.56222 39123 ft 478 kts 34°
2026-05-06 15:09 44.54002 -14.50518 39123 ft 478 kts 34°
2026-05-06 15:09 44.59269 -14.44787 39124 ft 479 kts 34°
2026-05-06 15:10 44.64531 -14.39047 39121 ft 479 kts 34°
2026-05-06 15:10 44.69798 -14.33290 39121 ft 480 kts 34°
2026-05-06 15:11 44.75063 -14.27520 39122 ft 480 kts 35°
2026-05-06 15:11 44.80333 -14.21731 39119 ft 480 kts 35°
2026-05-06 15:12 44.85605 -14.15925 39114 ft 481 kts 35°
2026-05-06 15:12 44.90873 -14.10110 39114 ft 481 kts 35°
2026-05-06 15:13 44.96142 -14.04281 39117 ft 481 kts 35°
2026-05-06 15:13 45.01481 -13.98613 39117 ft 478 kts 30°
2026-05-06 15:14 45.07138 -13.93672 39115 ft 478 kts 28°
2026-05-06 15:14 45.12837 -13.88815 39111 ft 478 kts 28°
2026-05-06 15:15 45.18528 -13.83912 39110 ft 478 kts 28°
2026-05-06 15:15 45.24208 -13.78967 39108 ft 479 kts 29°
2026-05-06 15:16 45.29878 -13.74004 39110 ft 479 kts 29°
2026-05-06 15:16 45.35550 -13.69027 39108 ft 479 kts 29°
2026-05-06 15:17 45.41221 -13.64041 39105 ft 479 kts 29°
2026-05-06 15:17 45.46852 -13.59079 39105 ft 479 kts 29°
2026-05-06 15:18 45.52516 -13.54076 39102 ft 479 kts 29°
2026-05-06 15:18 45.58177 -13.49064 39102 ft 479 kts 29°
2026-05-06 15:19 45.63835 -13.44043 39104 ft 479 kts 29°
2026-05-06 15:19 45.69492 -13.39010 39102 ft 479 kts 29°
2026-05-06 15:20 45.75150 -13.33965 39104 ft 479 kts 30°
2026-05-06 15:20 45.78923 -13.30594 39103 ft 479 kts 30°
2026-05-06 15:21 45.86443 -13.23858 39100 ft 479 kts 30°
2026-05-06 15:21 45.92096 -13.18780 39087 ft 479 kts 30°
2026-05-06 15:22 45.97739 -13.13698 39085 ft 479 kts 30°
2026-05-06 15:22 46.03391 -13.08597 39106 ft 479 kts 30°
2026-05-06 15:23 46.09035 -13.03489 39107 ft 479 kts 30°
2026-05-06 15:23 46.13726 -12.99235 39093 ft 480 kts 30°
2026-05-06 15:24 46.19384 -12.94092 39091 ft 480 kts 30°
2026-05-06 15:24 46.25030 -12.88948 39092 ft 480 kts 30°
2026-05-06 15:25 46.30673 -12.83794 39090 ft 480 kts 30°
2026-05-06 15:25 46.36323 -12.78619 39093 ft 480 kts 30°
2026-05-06 15:26 46.41968 -12.73437 39090 ft 480 kts 30°
2026-05-06 15:26 46.47613 -12.68243 39095 ft 481 kts 30°
2026-05-06 15:27 46.53265 -12.63028 39087 ft 481 kts 30°
2026-05-06 15:27 46.58909 -12.57808 39089 ft 481 kts 30°
2026-05-06 15:28 46.64546 -12.52581 39088 ft 481 kts 30°
2026-05-06 15:28 46.70190 -12.47335 39083 ft 481 kts 31°
2026-05-06 15:29 46.74877 -12.42969 39083 ft 481 kts 31°
2026-05-06 15:30 46.87686 -12.30988 39085 ft 481 kts 31°
2026-05-06 15:30 46.93320 -12.25697 39081 ft 481 kts 31°
2026-05-06 15:31 46.98956 -12.20389 39080 ft 481 kts 31°
2026-05-06 15:31 47.04582 -12.15078 39079 ft 481 kts 31°
2026-05-06 15:32 47.13025 -12.07083 39076 ft 481 kts 31°
2026-05-06 15:32 47.18647 -12.01742 39077 ft 481 kts 31°
2026-05-06 15:33 47.24268 -11.96388 39072 ft 481 kts 31°
2026-05-06 15:33 47.29878 -11.91031 39072 ft 481 kts 31°
2026-05-06 15:34 47.35494 -11.85655 39071 ft 481 kts 31°
2026-05-06 15:34 47.41102 -11.80272 39069 ft 481 kts 31°
2026-05-06 15:35 47.46718 -11.74868 39069 ft 481 kts 31°
2026-05-06 15:35 47.52326 -11.69457 39070 ft 481 kts 31°
2026-05-06 15:36 47.57932 -11.64034 39070 ft 481 kts 32°
2026-05-06 15:36 47.63529 -11.58606 39066 ft 481 kts 32°
2026-05-06 15:37 47.69128 -11.53161 39065 ft 481 kts 32°
2026-05-06 15:37 47.74729 -11.47701 39063 ft 481 kts 32°
2026-05-06 15:38 47.80328 -11.42229 39064 ft 481 kts 32°
2026-05-06 15:38 47.85918 -11.36750 39061 ft 482 kts 32°
2026-05-06 15:39 47.90568 -11.32182 39061 ft 482 kts 32°
2026-05-06 15:39 47.96161 -11.26674 39064 ft 482 kts 32°
2026-05-06 15:40 48.01749 -11.21157 39063 ft 482 kts 32°
2026-05-06 15:40 48.07336 -11.15626 39060 ft 481 kts 32°
2026-05-06 15:41 48.12921 -11.10083 39058 ft 481 kts 32°
2026-05-06 15:41 48.18501 -11.04529 39062 ft 481 kts 32°
2026-05-06 15:42 48.24073 -10.98969 39062 ft 481 kts 32°
2026-05-06 15:42 48.29643 -10.93396 39057 ft 481 kts 32°
2026-05-06 15:43 48.35212 -10.87809 39058 ft 481 kts 32°
2026-05-06 15:43 48.38898 -10.84103 39057 ft 481 kts 32°
2026-05-06 15:44 48.46302 -10.76638 39059 ft 481 kts 32°
2026-05-06 15:44 48.51891 -10.70986 39039 ft 481 kts 32°
2026-05-06 15:45 48.57411 -10.65388 39046 ft 481 kts 32°
2026-05-06 15:45 48.62966 -10.59739 39045 ft 481 kts 32°
2026-05-06 15:46 48.68518 -10.54079 39060 ft 481 kts 33°
2026-05-06 15:46 48.73750 -10.47772 39059 ft 482 kts 43°
2026-05-06 15:47 48.78205 -10.40147 39056 ft 483 kts 49°
2026-05-06 15:47 48.82455 -10.32244 39059 ft 484 kts 49°
2026-05-06 15:48 48.86732 -10.24352 39042 ft 484 kts 49°
2026-05-06 15:48 48.91031 -10.16483 39045 ft 484 kts 49°
2026-05-06 15:49 48.95329 -10.08602 39045 ft 484 kts 49°
2026-05-06 15:49 48.99537 -10.00861 39039 ft 484 kts 49°
2026-05-06 15:50 49.03766 -9.92861 39043 ft 485 kts 50°
2026-05-06 15:50 49.07923 -9.84763 39041 ft 485 kts 51°
2026-05-06 15:51 49.12076 -9.76651 39038 ft 485 kts 51°
2026-05-06 15:51 49.16232 -9.68546 39039 ft 485 kts 51°
2026-05-06 15:52 49.20389 -9.60431 39039 ft 485 kts 51°
2026-05-06 15:52 49.24536 -9.52312 39038 ft 484 kts 51°
2026-05-06 15:53 49.28677 -9.44178 39041 ft 484 kts 51°
2026-05-06 15:53 49.32809 -9.36036 39033 ft 484 kts 51°
2026-05-06 15:54 49.36936 -9.27879 39035 ft 484 kts 51°
2026-05-06 15:54 49.41034 -9.19756 39037 ft 484 kts 51°
2026-05-06 15:55 49.45145 -9.11579 39033 ft 484 kts 51°
2026-05-06 15:55 49.49251 -9.03389 39030 ft 484 kts 51°
2026-05-06 15:56 49.53354 -8.95180 39024 ft 483 kts 51°
2026-05-06 15:56 49.57448 -8.86962 39024 ft 483 kts 51°
2026-05-06 15:57 49.61535 -8.78733 39026 ft 483 kts 51°
2026-05-06 15:57 49.65617 -8.70488 39026 ft 484 kts 51°
2026-05-06 15:58 49.69695 -8.62225 39024 ft 484 kts 51°
2026-05-06 15:58 49.73770 -8.53945 39022 ft 484 kts 51°
2026-05-06 15:59 49.77837 -8.45653 39024 ft 484 kts 51°
2026-05-06 15:59 49.81900 -8.37343 39022 ft 484 kts 51°
2026-05-06 16:00 49.85959 -8.29015 39020 ft 484 kts 52°
2026-05-06 16:00 49.90010 -8.20679 39023 ft 484 kts 52°
2026-05-06 16:01 49.94052 -8.12333 39022 ft 484 kts 52°
2026-05-06 16:01 49.98075 -8.03962 39018 ft 484 kts 54°
2026-05-06 16:02 50.01387 -7.94934 39016 ft 486 kts 65°
2026-05-06 16:02 50.03895 -7.85178 39017 ft 486 kts 68°
2026-05-06 16:03 50.06324 -7.75365 39018 ft 486 kts 68°
2026-05-06 16:03 50.08774 -7.65552 39017 ft 486 kts 68°
2026-05-06 16:04 50.11241 -7.55741 39017 ft 486 kts 67°
2026-05-06 16:04 50.13707 -7.45934 39018 ft 486 kts 68°
2026-05-06 16:05 50.16168 -7.36105 39018 ft 487 kts 68°
2026-05-06 16:05 50.18618 -7.26268 39017 ft 487 kts 68°
2026-05-06 16:06 50.21061 -7.16411 39017 ft 487 kts 68°
2026-05-06 16:06 50.23102 -7.08143 39016 ft 487 kts 68°
2026-05-06 16:07 50.25922 -6.96670 39016 ft 487 kts 68°
2026-05-06 16:07 50.28340 -6.86783 39018 ft 487 kts 68°
2026-05-06 16:08 50.30749 -6.76888 39021 ft 487 kts 68°
2026-05-06 16:08 50.33149 -6.66988 39017 ft 487 kts 68°
2026-05-06 16:09 50.35543 -6.57065 39018 ft 487 kts 68°
2026-05-06 16:09 50.37540 -6.48754 39015 ft 487 kts 68°
2026-05-06 16:10 50.38329 -6.45462 39016 ft 487 kts 68°
2026-05-06 16:11 50.45027 -6.17314 39014 ft 487 kts 69°
2026-05-06 16:11 50.47393 -6.07278 39009 ft 487 kts 69°
2026-05-06 16:12 50.49718 -5.97374 39010 ft 487 kts 69°
2026-05-06 16:12 50.52053 -5.87384 39002 ft 487 kts 69°
2026-05-06 16:13 50.54003 -5.79000 39002 ft 487 kts 69°
2026-05-06 16:13 50.56698 -5.67364 38997 ft 487 kts 69°
2026-05-06 16:14 50.59010 -5.57332 38995 ft 488 kts 69°
2026-05-06 16:14 50.61312 -5.47293 38994 ft 488 kts 69°
2026-05-06 16:15 50.63220 -5.38935 38994 ft 488 kts 69°
2026-05-06 16:15 50.65509 -5.28869 38993 ft 488 kts 69°
2026-05-06 16:16 50.67035 -5.22129 38994 ft 488 kts 69°
2026-05-06 16:16 50.68929 -5.13734 38992 ft 488 kts 70°
2026-05-06 16:17 50.72329 -4.98583 38995 ft 488 kts 70°
2026-05-06 16:17 50.72710 -4.96878 38993 ft 488 kts 70°
2026-05-06 16:18 50.76469 -4.79979 39000 ft 489 kts 70°
2026-05-06 16:18 50.79227 -4.67495 38984 ft 489 kts 70°
2026-05-06 16:19 50.81458 -4.57342 38990 ft 489 kts 70°
2026-05-06 16:19 50.83694 -4.47113 38990 ft 489 kts 70°
2026-05-06 16:20 50.85906 -4.36942 38992 ft 489 kts 70°
2026-05-06 16:20 50.88096 -4.26829 38985 ft 489 kts 70°
2026-05-06 16:21 50.90292 -4.16633 38985 ft 489 kts 70°
2026-05-06 16:21 50.92478 -4.06434 38985 ft 489 kts 70°
2026-05-06 16:22 50.94657 -3.96218 38984 ft 489 kts 71°
2026-05-06 16:22 50.96826 -3.85996 38984 ft 489 kts 71°
2026-05-06 16:23 50.98987 -3.75757 38989 ft 489 kts 71°
2026-05-06 16:23 51.01140 -3.65506 38986 ft 490 kts 71°
2026-05-06 16:24 51.03286 -3.55240 38988 ft 490 kts 71°
2026-05-06 16:24 51.05422 -3.44966 38985 ft 490 kts 71°
2026-05-06 16:25 51.07549 -3.34678 38988 ft 490 kts 71°
2026-05-06 16:25 51.09668 -3.24383 38987 ft 490 kts 71°
2026-05-06 16:26 51.11782 -3.14058 38986 ft 490 kts 71°
2026-05-06 16:26 51.13882 -3.03746 38989 ft 490 kts 71°
2026-05-06 16:27 51.15975 -2.93410 38990 ft 490 kts 72°
2026-05-06 16:27 51.18060 -2.83063 38989 ft 490 kts 72°
2026-05-06 16:28 51.20134 -2.72715 38991 ft 490 kts 72°
2026-05-06 16:28 51.22202 -2.62346 38993 ft 491 kts 72°
2026-05-06 16:29 51.24261 -2.51961 38991 ft 491 kts 72°
2026-05-06 16:29 51.26312 -2.41565 38991 ft 491 kts 72°
2026-05-06 16:30 51.28011 -2.32908 38993 ft 491 kts 72°
2026-05-06 16:30 51.30389 -2.20725 38987 ft 492 kts 72°
2026-05-06 16:31 51.32421 -2.10256 38994 ft 493 kts 72°
2026-05-06 16:31 51.34443 -1.99791 38992 ft 493 kts 72°
2026-05-06 16:32 51.36679 -1.89423 38995 ft 493 kts 70°
2026-05-06 16:32 51.39044 -1.79081 38992 ft 494 kts 70°
2026-05-06 16:33 51.41305 -1.68701 38993 ft 494 kts 72°
2026-05-06 16:34 51.44266 -1.52883 38989 ft 494 kts 74°
2026-05-06 16:34 51.46187 -1.42314 38987 ft 494 kts 73°
2026-05-06 16:35 51.48130 -1.31751 38989 ft 494 kts 73°
2026-05-06 16:35 51.50082 -1.21183 38994 ft 493 kts 73°
2026-05-06 16:36 51.52024 -1.10621 38993 ft 493 kts 74°
2026-05-06 16:36 51.53953 -1.00063 38990 ft 493 kts 74°
2026-05-06 16:37 51.55871 -0.89496 38994 ft 492 kts 74°
2026-05-06 16:37 51.57778 -0.78926 38990 ft 492 kts 74°
2026-05-06 16:38 51.59673 -0.68364 38994 ft 492 kts 74°
2026-05-06 16:38 51.61559 -0.57785 38989 ft 492 kts 75°
2026-05-06 16:39 51.63435 -0.47206 38993 ft 491 kts 75°
2026-05-06 16:39 51.65287 -0.36699 39044 ft 491 kts 75°
2026-05-06 16:40 51.67142 -0.26112 39061 ft 491 kts 75°
2026-05-06 16:40 51.68989 -0.15508 39048 ft 491 kts 75°
2026-05-06 16:41 51.70800 -0.05044 39029 ft 491 kts 75°
2026-05-06 16:41 51.72628 0.05572 39026 ft 491 kts 75°
2026-05-06 16:42 51.74139 0.14405 38994 ft 491 kts 75°
2026-05-06 16:42 51.76254 0.26837 38992 ft 491 kts 75°
2026-05-06 16:43 51.78050 0.37463 38992 ft 491 kts 76°
2026-05-06 16:43 51.79841 0.48127 38983 ft 491 kts 76°
2026-05-06 16:44 51.81617 0.58770 38984 ft 491 kts 76°
2026-05-06 16:44 51.83385 0.69425 38970 ft 491 kts 76°
2026-05-06 16:45 51.85142 0.80088 38970 ft 491 kts 76°
2026-05-06 16:45 51.86595 0.88952 38959 ft 491 kts 76°
2026-05-06 16:46 51.88337 0.99639 38963 ft 490 kts 76°
2026-05-06 16:46 51.90065 1.10310 38961 ft 490 kts 76°
2026-05-06 16:47 51.91783 1.20992 38968 ft 490 kts 76°
2026-05-06 16:47 51.93493 1.31686 38960 ft 490 kts 77°
2026-05-06 16:48 51.95196 1.42411 38572 ft 496 kts 77°
2026-05-06 16:48 51.96055 1.47844 37770 ft 495 kts 77°
2026-05-06 16:48 51.96903 1.53228 37050 ft 491 kts 77°
2026-05-06 16:48 51.97744 1.58576 36323 ft 488 kts 77°
2026-05-06 16:49 51.98577 1.63897 35564 ft 486 kts 77°
2026-05-06 16:49 51.99396 1.69143 34722 ft 486 kts 77°
2026-05-06 16:49 52.00223 1.74462 33840 ft 486 kts 78°
2026-05-06 16:49 52.01047 1.79787 32777 ft 487 kts 77°
2026-05-06 16:50 52.01870 1.85116 31796 ft 486 kts 77°
2026-05-06 16:50 52.02692 1.90453 30791 ft 487 kts 77°
2026-05-06 16:50 52.03508 1.95770 30047 ft 482 kts 77°
2026-05-06 16:50 52.04311 2.01019 29276 ft 476 kts 77°
2026-05-06 16:51 52.05104 2.06213 28559 ft 470 kts 77°
2026-05-06 16:51 52.05881 2.11325 27903 ft 463 kts 77°
2026-05-06 16:51 52.06647 2.16380 27234 ft 457 kts 78°
2026-05-06 16:51 52.07401 2.21371 26581 ft 452 kts 77°
2026-05-06 16:52 52.08144 2.26309 25926 ft 447 kts 77°
2026-05-06 16:52 52.08877 2.31192 25276 ft 443 kts 78°
2026-05-06 16:52 52.09601 2.36034 24638 ft 439 kts 78°
2026-05-06 16:52 52.10319 2.40840 24015 ft 435 kts 78°
2026-05-06 16:53 52.11027 2.45596 23373 ft 432 kts 78°
2026-05-06 16:53 52.11888 2.50251 22760 ft 427 kts 66°
2026-05-06 16:53 52.13297 2.54471 22401 ft 424 kts 60°
2026-05-06 16:53 52.14850 2.58614 22020 ft 431 kts 59°
2026-05-06 16:54 52.16415 2.62725 21610 ft 424 kts 59°
2026-05-06 16:54 52.17949 2.66794 21233 ft 420 kts 59°
2026-05-06 16:54 52.19443 2.70823 20868 ft 422 kts 60°
2026-05-06 16:54 52.20942 2.74926 20490 ft 419 kts 60°
2026-05-06 16:55 52.22412 2.78993 20123 ft 415 kts 60°
2026-05-06 16:55 52.23872 2.83056 19762 ft 415 kts 60°
2026-05-06 16:55 52.25326 2.87114 19385 ft 413 kts 60°
2026-05-06 16:55 52.26764 2.91140 19022 ft 409 kts 60°
2026-05-06 16:56 52.28194 2.95146 18671 ft 407 kts 60°
2026-05-06 16:56 52.29618 2.99142 18315 ft 405 kts 60°
2026-05-06 16:56 52.31028 3.03105 17904 ft 403 kts 60°
2026-05-06 16:56 52.32434 3.07061 17521 ft 400 kts 60°
2026-05-06 16:57 52.33826 3.10985 17154 ft 399 kts 60°
2026-05-06 16:57 52.35217 3.14909 16798 ft 397 kts 60°
2026-05-06 16:57 52.36600 3.18818 16436 ft 396 kts 60°
2026-05-06 16:57 52.37969 3.22694 16099 ft 392 kts 60°
2026-05-06 16:58 52.39333 3.26562 15752 ft 392 kts 60°
2026-05-06 16:58 52.40692 3.30422 15391 ft 391 kts 60°
2026-05-06 16:58 52.42046 3.34270 15061 ft 388 kts 59°
2026-05-06 16:58 52.43394 3.38109 14717 ft 388 kts 59°
2026-05-06 16:59 52.44703 3.41936 14351 ft 380 kts 64°
2026-05-06 16:59 52.45560 3.46032 14033 ft 383 kts 76°
2026-05-06 16:59 52.46137 3.50306 13688 ft 383 kts 78°
2026-05-06 16:59 52.46684 3.54555 13305 ft 379 kts 77°
2026-05-06 17:00 52.47229 3.58710 12967 ft 376 kts 77°
2026-05-06 17:00 52.47796 3.62891 12631 ft 376 kts 77°
2026-05-06 17:00 52.48376 3.67061 12286 ft 374 kts 76°
2026-05-06 17:00 52.48960 3.71210 11937 ft 371 kts 76°
2026-05-06 17:01 52.49538 3.75303 11626 ft 365 kts 76°
2026-05-06 17:01 52.50106 3.79317 11306 ft 356 kts 76°
2026-05-06 17:01 52.50659 3.83232 10996 ft 348 kts 76°
2026-05-06 17:01 52.51198 3.87059 10687 ft 341 kts 76°
2026-05-06 17:02 52.51724 3.90811 10389 ft 333 kts 76°
2026-05-06 17:02 52.52224 3.94479 10086 ft 322 kts 79°
2026-05-06 17:02 52.52198 3.98069 9897 ft 308 kts 103°
2026-05-06 17:02 52.51530 4.01222 9805 ft 281 kts 111°
2026-05-06 17:03 52.50796 4.04197 9707 ft 285 kts 111°
2026-05-06 17:03 52.50061 4.07145 9489 ft 285 kts 111°
2026-05-06 17:03 52.49312 4.10155 9152 ft 284 kts 111°
2026-05-06 17:03 52.48571 4.13140 8842 ft 282 kts 111°
2026-05-06 17:04 52.47836 4.16107 8542 ft 280 kts 111°
2026-05-06 17:04 52.47110 4.19048 8226 ft 277 kts 111°
2026-05-06 17:04 52.46386 4.21982 7897 ft 277 kts 111°
2026-05-06 17:04 52.45670 4.24890 7628 ft 274 kts 111°
2026-05-06 17:05 52.44993 4.27634 7359 ft 272 kts 111°
2026-05-06 17:05 52.44290 4.30487 7106 ft 268 kts 111°
2026-05-06 17:05 52.43595 4.33303 6838 ft 266 kts 111°
2026-05-06 17:05 52.42901 4.36111 6538 ft 265 kts 111°
2026-05-06 17:06 52.42213 4.38892 6273 ft 263 kts 111°
2026-05-06 17:06 52.41328 4.41465 5818 ft 264 kts 131°
2026-05-06 17:06 52.39793 4.43091 5537 ft 265 kts 161°
2026-05-06 17:06 52.37974 4.43474 5168 ft 267 kts 178°
2026-05-06 17:07 52.36094 4.43381 4711 ft 273 kts 181°
2026-05-06 17:07 52.34172 4.43200 4184 ft 281 kts 182°
2026-05-06 17:07 52.32239 4.42992 4029 ft 273 kts 182°
2026-05-06 17:07 52.30384 4.42781 3564 ft 263 kts 182°
2026-05-06 17:08 52.28563 4.42556 2774 ft 263 kts 182°
2026-05-06 17:08 52.26752 4.42318 2574 ft 260 kts 180°
2026-05-06 17:08 52.24985 4.42651 2345 ft 257 kts 154°
2026-05-06 17:08 52.23444 4.44083 2181 ft 259 kts 142°
2026-05-06 17:09 52.21941 4.45695 2012 ft 256 kts 143°
2026-05-06 17:09 52.20502 4.47276 1994 ft 241 kts 136°
2026-05-06 17:09 52.19527 4.49429 1994 ft 238 kts 104°
2026-05-06 17:09 52.19430 4.52066 2005 ft 235 kts 73°
2026-05-06 17:10 52.20222 4.54331 1999 ft 232 kts 42°
2026-05-06 17:10 52.21447 4.55957 1995 ft 224 kts 39°
2026-05-06 17:10 52.22506 4.57738 1988 ft 214 kts 50°
2026-05-06 17:10 52.23405 4.59599 1983 ft 203 kts 52°
2026-05-06 17:11 52.24193 4.61471 1785 ft 201 kts 55°
2026-05-06 17:11 52.24933 4.63401 1554 ft 199 kts 56°
2026-05-06 17:11 52.25646 4.65257 1260 ft 187 kts 55°
2026-05-06 17:11 52.26325 4.67018 988 ft 181 kts 55°
2026-05-06 17:12 52.27002 4.68777 740 ft 185 kts 55°
2026-05-06 17:12 52.27690 4.70559 468 ft 183 kts 57°
2026-05-06 17:12 52.28351 4.72279 246 ft 175 kts 56°
2026-05-06 17:12 52.28977 4.73906 37 ft 162 kts 56°
2026-05-06 17:13 52.29534 4.75341 3 ft 122 kts 58°
2026-05-06 17:13 52.29889 4.76272 1 ft 77 kts 58°
2026-05-06 17:13 52.30110 4.76845 3 ft 42 kts 58°
2026-05-06 17:13 52.30231 4.77164 1 ft 31 kts 55°
2026-05-06 17:14 52.30389 4.77383 2 ft 27 kts 26°
2026-05-06 17:14 52.30442 4.77416 2 ft 7 kts
2026-05-06 17:14 52.30485 4.77397 3 ft 0 kts 335°
2026-05-06 17:15 52.30508 4.77393 3 ft 11 kts
2026-05-06 17:16 52.30565 4.77482 3 ft 12 kts 53°
2026-05-06 17:16 52.30641 4.77579 3 ft 22 kts 15°
2026-05-06 17:16 52.30796 4.77600 3 ft 22 kts
2026-05-06 17:16 52.30951 4.77615 3 ft 22 kts
2026-05-06 17:17 52.31106 4.77631 3 ft 22 kts
2026-05-06 17:17 52.31261 4.77643 3 ft 22 kts
2026-05-06 17:17 52.31416 4.77651 4 ft 22 kts 352°
2026-05-06 17:17 52.31541 4.77509 3 ft 22 kts 311°
2026-05-06 17:18 52.31575 4.77269 3 ft 22 kts 266°
2026-05-06 17:18 52.31566 4.77016 3 ft 22 kts 267°
2026-05-06 17:18 52.31558 4.76762 3 ft 22 kts 267°
2026-05-06 17:18 52.31550 4.76537 4 ft 11 kts 265°
2026-05-06 17:19 52.31544 4.76409 4 ft 11 kts 265°
2026-05-06 17:19 52.31539 4.76221 4 ft 25 kts 267°
2026-05-06 17:19 52.31525 4.75975 4 ft 18 kts 246°
2026-05-06 17:19 52.31460 4.75939 4 ft 9 kts 149°
2026-05-06 17:20 52.31447 4.76032 3 ft 9 kts 85°
2026-05-06 17:20 52.31450 4.76133 4 ft 9 kts 96°
2026-05-06 17:20 52.31429 4.76164 3 ft 4 kts 156°
2026-05-06 17:20 52.31402 4.76170 3 ft 4 kts 177°
2026-05-06 17:21 52.31378 4.76172 3 ft 3 kts 177°
2026-05-06 17:21 52.31363 4.76173 3 ft 2 kts 177°